Dewpoint
55 55 55 55 54 54 54 54 54 54 54 54 55 55 55 56 56 50 31 39 40 59 62 48 48 46 53 54 57 60 60 55 55 56 59 60 57 58 60 56 54 55 55 56 58
55 55 55 54 54 55 55 54 54 54 54 54 54 55 55 56 49 39 52 57 52 62 49 45 40 45 50 50 54 59 60 55 57 59 59 59 57 57 57 56 55 54 57 57 57
55 55 55 55 53 53 54 54 54 54 54 54 54 55 55 54 45 30 56 60 59 56 42 41 37 42 44 41 53 55 57 56 58 60 60 58 56 56 56 56 55 57 57 56 56
55 55 54 53 53 53 53 53 54 54 54 54 54 54 55 49 26 40 60 64 61 39 41 36 35 35 33 43 52 53 54 58 62 61 59 57 56 55 55 57 56 57 56 55 55
55 54 54 54 53 53 53 53 53 53 53 53 54 54 51 40 31 47 60 58 37 44 40 35 34 32 30 42 51 54 54 59 61 58 58 57 57 56 56 55 56 56 55 53 52
54 54 54 54 53 53 53 52 52 52 53 53 54 54 46 35 31 38 44 36 23 33 36 34 31 32 33 46 50 52 55 57 58 61 60 57 58 56 53 54 55 55 53 51 51
54 54 54 54 54 54 53 53 54 53 52 52 53 49 41 31 28 42 43 29 32 30 32 31 29 28 39 47 49 48 55 56 58 60 60 57 53 54 55 53 54 52 50 51 51
54 54 54 54 53 53 53 53 53 54 53 53 54 46 36 28 31 42 38 33 34 32 32 32 31 29 41 47 46 47 50 54 59 60 61 57 52 59 54 53 51 49 49 50 52
55 55 54 54 54 53 53 53 54 55 54 54 51 44 26 35 27 37 37 33 30 30 32 31 30 29 40 45 42 44 42 54 57 60 59 59 55 59 54 50 48 49 50 51 53
55 54 54 54 54 54 53 53 55 55 54 49 43 38 31 27 31 30 28 30 28 24 26 27 25 27 35 41 38 38 40 50 55 57 58 57 57 58 58 50 49 49 51 52 53
55 55 54 55 54 53 50 52 48 49 46 35 30 30 28 30 32 30 25 20 24 23 19 21 19 22 29 41 39 35 36 50 56 59 57 57 57 55 58 58 52 49 50 51 53
54 54 54 54 54 53 49 37 34 36 34 31 30 30 30 27 28 30 23 17 16 16 15 18 17 20 25 39 39 34 34 54 56 58 57 57 56 57 55 55 57 50 50 52 53
54 54 53 53 53 50 42 37 37 37 35 28 28 28 29 28 26 28 27 23 16 12 11 16 15 17 23 35 39 34 39 52 53 57 56 55 56 57 55 54 57 56 54 53 56
54 53 53 52 48 40 37 38 37 39 32 27 28 28 28 28 23 29 26 24 19 15 10 15 17 16 22 34 38 33 43 51 51 53 50 52 49 56 59 55 57 58 53 53 55
54 53 52 51 48 37 36 37 39 38 28 24 24 28 28 27 25 28 28 25 18 13 14 14 18 19 26 34 36 33 33 51 54 47 53 49 45 54 58 53 55 56 55 55 55
53 53 52 50 47 39 38 38 38 28 21 22 24 25 24 25 22 24 24 28 26 15 12 15 21 25 26 31 36 32 31 40 43 42 42 44 41 53 54 54 53 56 54 53 55
52 52 51 48 38 37 37 38 31 21 24 21 21 22 21 22 24 23 22 23 25 20 17 19 27 24 28 28 35 32 30 36 36 34 33 43 36 48 54 55 55 53 52 51 49
51 51 50 45 41 39 39 35 24 20 21 22 22 20 20 22 24 24 24 22 23 20 16 13 22 25 28 29 30 33 34 37 35 29 31 36 33 45 51 53 55 55 56 53 52
51 48 45 44 44 43 38 26 22 22 20 20 21 20 19 17 28 24 23 22 22 24 21 15 18 24 25 26 28 30 34 37 34 32 34 41 46 48 47 50 53 55 56 55 54
49 40 36 40 42 39 32 26 23 21 20 21 20 22 22 21 18 24 24 23 25 23 22 25 21 22 22 24 22 22 30 31 34 32 28 37 44 42 49 49 51 53 55 57 57
47 37 35 37 37 34 23 21 19 21 22 24 22 23 22 26 21 25 31 33 28 29 24 23 24 24 23 22 21 20 21 28 30 27 28 26 39 50 50 51 51 52 55 57 60
38 32 34 34 31 24 22 22 30 18 23 24 23 25 27 29 27 28 34 36 28 27 25 24 22 21 21 18 18 19 19 25 28 33 27 26 42 56 53 51 53 54 57 59 61
38 29 29 30 27 22 24 20 19 19 23 25 25 25 29 29 30 28 33 30 29 27 30 29 23 22 27 17 18 17 19 16 20 21 29 22 45 52 55 55 54 55 57 60 61
34 26 28 24 23 25 23 22 20 21 20 24 27 26 28 30 32 31 29 33 30 31 49 38 26 25 25 27 23 21 21 18 15 18 20 25 49 54 55 58 60 60 61 60 62
32 27 29 27 23 23 24 22 19 17 20 24 29 26 28 32 32 31 30 32 31 41 36 31 30 30 32 32 25 18 17 18 19 21 21 26 37 50 55 59 61 62 63 62 62
39 30 26 29 27 26 28 24 16 19 23 20 29 28 30 33 38 42 33 35 38 36 38 35 35 35 35 30 26 20 17 19 20 20 22 26 32 59 56 59 60 62 62 63 64
43 38 32 33 26 22 22 20 21 24 22 21 21 30 29 30 30 29 30 31 30 34 34 38 38 34 28 25 27 25 26 24 23 23 26 34 51 57 58 59 60 62 63 63 64
Lifted_Index
18 18 18 18 18 18 18 17 17 17 16 16 16 15 14 14 14 13 13 13 14 11 7 4 4 4 2 0 -1 -2 -2 -2 -2 -2 -2 -1 -1 -1 -2 -2 -1 -1 -1 -1 -1
18 18 18 18 18 18 17 17 17 17 16 16 16 15 15 14 13 12 12 13 14 11 7 5 5 4 2 1 -1 -2 -2 -2 -2 -2 -2 -1 -1 -1 -2 -2 -1 -1 -1 -1 -1
18 18 18 18 18 18 17 17 17 17 16 16 15 15 14 13 11 10 11 12 12 11 7 5 5 4 3 1 -1 -2 -2 -2 -2 -2 -2 -1 -1 -1 -2 -2 -1 -1 -1 -1 -1
18 18 18 18 18 18 18 17 17 17 16 16 15 15 13 11 10 9 9 10 11 10 7 5 5 5 4 2 -1 -2 -2 -2 -2 -1 -1 -1 -1 -1 -1 -1 -1 -1 -0 -0 0
18 18 18 17 17 17 17 17 17 16 16 15 15 14 12 10 9 8 8 9 11 9 7 5 5 5 4 1 -1 -2 -2 -2 -1 -1 -1 -1 -1 -1 -1 -1 -1 -0 0 1 1
18 17 17 16 16 16 16 16 16 15 15 14 14 12 10 9 9 8 8 10 11 9 7 6 6 5 4 1 -1 -1 -2 -2 -1 -1 -1 -1 -1 -1 -0 -0 0 0 1 2 2
17 17 16 15 15 14 14 13 13 14 14 13 13 11 9 9 9 7 8 9 10 9 7 6 6 5 3 0 -1 -1 -2 -1 -1 -1 -1 -0 -0 -0 -0 0 1 1 2 2 2
17 17 16 15 14 13 12 11 11 12 12 12 11 9 8 9 8 7 7 8 8 8 8 7 6 5 2 0 -1 -1 -2 -2 -1 -1 -0 -0 -0 -0 0 1 2 2 2 2 2
17 16 15 14 13 12 10 9 9 10 10 10 9 8 7 8 8 7 7 7 8 8 8 7 6 5 2 -0 -1 -1 -2 -2 -2 -1 -0 -0 -0 -0 0 2 2 2 2 2 2
16 16 14 13 12 10 9 8 7 7 8 8 7 6 7 7 7 7 7 8 8 8 8 7 6 5 2 -0 -1 -1 -2 -2 -2 -1 -0 -0 -1 -1 0 1 2 2 2 1 1
16 15 14 13 11 10 8 7 6 5 5 5 6 6 6 6 6 7 8 8 8 7 7 7 6 5 2 0 -1 -1 -1 -2 -2 -1 -1 -0 -1 -1 0 1 1 2 2 1 1
15 15 14 12 10 9 7 6 5 4 4 4 5 5 6 6 6 6 7 7 8 7 6 6 6 4 3 0 -0 -0 -1 -2 -2 -1 -1 -1 -1 -1 0 1 1 1 1 1 1
15 14 13 11 9 8 7 6 5 4 3 3 4 5 5 5 5 5 6 6 7 6 6 5 4 4 3 1 -0 -1 -2 -2 -2 -2 -1 -1 -2 -1 -0 0 0 0 1 0 0
14 13 12 10 8 6 5 5 4 3 2 2 3 4 4 4 4 5 5 5 5 6 5 4 4 4 3 1 -0 -1 -1 -2 -2 -2 -2 -2 -3 -2 -1 0 0 -0 -0 -0 -0
13 12 10 9 7 5 5 4 4 2 1 1 2 3 3 3 4 4 5 5 5 5 5 4 3 4 3 2 0 -0 -0 -1 -2 -2 -2 -3 -3 -3 -2 -0 0 -0 -1 -0 -0
12 10 9 7 6 5 4 4 2 1 0 0 1 1 1 2 3 4 4 4 4 4 4 3 3 4 3 1 1 1 0 -1 -2 -2 -2 -2 -2 -3 -2 -1 -1 -1 -1 -1 -0
10 9 7 6 5 5 4 2 1 0 0 0 0 0 0 0 1 2 3 3 3 3 3 3 3 3 3 1 1 1 0 -1 -2 -2 -1 -1 -2 -3 -3 -2 -2 -2 -1 -1 -0
8 7 6 5 4 4 3 1 0 1 1 1 0 0 -0 -0 -0 1 2 2 2 2 1 2 2 2 2 2 1 0 -0 -2 -2 -1 -1 -1 -2 -3 -3 -3 -3 -3 -2 -1 -1
6 5 4 3 4 3 2 1 1 1 2 1 1 -0 -0 -0 -0 -0 0 0 1 1 0 0 1 1 2 2 1 1 -1 -2 -2 -1 -1 -1 -2 -3 -3 -3 -3 -3 -3 -2 -2
4 3 3 3 3 3 2 2 2 3 2 2 0 -0 -0 -0 -0 -1 -1 -1 -0 0 0 -0 -0 1 2 3 2 1 -0 -1 -1 -1 -1 -1 -2 -3 -3 -3 -3 -3 -3 -3 -2
3 2 3 3 3 3 3 3 4 3 3 2 1 -0 -1 -1 -1 -1 -1 -0 -0 -0 -0 -0 -0 0 1 2 2 2 1 -1 -1 -1 -0 -0 -1 -3 -4 -3 -3 -3 -3 -3 -3
2 2 3 3 2 2 3 4 4 4 3 2 1 0 -1 -1 -1 -1 -0 -0 -0 -0 -0 -0 -0 -0 0 1 1 1 0 -0 -1 -1 -0 -0 -1 -3 -4 -4 -4 -4 -4 -3 -3
2 2 3 3 2 2 3 4 4 4 3 2 2 1 -0 -1 -1 -1 -1 -0 -0 -0 -1 -1 -0 -0 -0 0 0 0 0 -0 -0 -1 -0 -1 -2 -4 -5 -5 -5 -4 -4 -3 -3
2 2 2 2 2 2 3 3 4 4 3 2 2 1 -0 -1 -1 -1 -1 -1 -1 -1 -1 -1 -1 -0 -0 -0 -0 0 0 -0 -0 -1 -0 -1 -3 -5 -5 -6 -6 -5 -5 -4 -4
2 2 2 2 2 3 3 3 3 4 3 3 2 1 -0 -1 -1 -1 -1 -1 -1 -1 -1 -1 -1 -1 -0 -0 -0 -0 -0 -0 -0 -1 -0 -1 -2 -4 -6 -6 -6 -6 -5 -5 -4
2 2 2 2 2 3 3 3 4 4 3 3 2 1 0 -1 -1 -1 -1 -1 -1 -1 -1 -2 -1 -1 -0 -0 -0 -0 -0 -0 -0 -0 -0 -1 -1 -3 -5 -6 -5 -5 -5 -5 -5
1 2 2 2 2 2 3 3 4 4 3 3 2 1 0 -0 -0 -0 -0 -0 -0 -1 -1 -1 -1 -1 -1 -0 -0 -0 -1 -0 -0 -0 -1 -1 -2 -3 -5 -5 -5 -5 -5 -5 -5